Vertical_Velocity
-4 -2 2 1 -0 -1 7 -9 3 -12 0 -6 -5 -1 1 1 -2 -0 0 0 -4 -2 -4 -3 -3 2 -2 -1 -1 -3 -3 2 1 3 2 -2 -2 -8 1 -0 -8 -6 -8 -3
-4 -2 3 1 -1 0 -0 -2 3 3 -4 -1 -2 -0 -0 -1 1 -0 -3 -3 -4 -2 11 3 1 -2 -5 -9 -6 0 -1 -8 -9 -9 -8 -2 6 17 0 -1 0 4 8 10
-3 1 1 4 -11 -2 -3 0 -0 3 -13 -1 -2 -0 1 2 -2 -1 -4 -0 8 1 -5 -7 -2 7 8 8 8 5 4 1 2 2 1 -1 2 5 2 8 4 34 14 9
1 -1 2 -10 0 -3 1 -4 -0 1 -2 -1 -1 -1 1 -3 -3 1 5 -3 -8 -6 -0 -4 -5 -7 -3 -3 -2 -1 6 8 6 8 5 -8 -10 27 16 9 3 -2 -2 -41
-2 -1 -5 0 0 -4 -1 -16 -3 -1 -2 -0 1 -1 -3 -4 11 -2 -2 -1 -1 0 2 4 -3 -2 -4 -4 4 2 -3 -2 -0 -3 -4 -4 -4 -5 0 1 6 -1 0 10
2 -0 -4 -1 -1 -1 -1 -4 -2 -0 0 -0 1 2 -3 5 -3 -3 -3 -1 -2 -2 1 -2 5 1 0 -2 -4 1 -1 -6 -5 -4 2 -3 2 5 -5 -12 5 -1 -10 -6
1 -1 -4 1 2 -2 -1 1 1 -1 1 -1 -1 3 4 -8 -8 -3 1 -1 -2 -1 3 7 -2 -7 -1 3 0 -3 -3 -5 -1 1 -1 0 -5 1 -2 1 -10 -6 -7 -3
3 3 -3 -3 12 -8 2 4 -3 -0 -2 -2 -2 -5 -1 -0 -0 -3 -0 -6 -1 -1 -3 -8 -2 4 -3 -4 -2 -5 -2 -0 -2 1 -1 1 2 0 -0 -1 -3 -6 -5 -5
-9 -7 0 2 -7 3 -3 -6 0 -4 2 -4 -1 0 -2 -1 -3 -3 0 1 -3 -3 -3 -0 -4 -2 -6 -5 -2 -4 -2 -5 -2 3 -3 -1 -2 -3 -5 -2 -1 -2 -1 -1
6 -1 -1 3 8 -7 -9 -5 0 -4 -2 -0 -2 -1 -3 -1 -2 -1 2 -3 -1 -4 -5 -6 -2 2 -2 1 -2 -3 -3 -4 -1 -2 -3 -3 -0 1 0 2 0 1 -0 -2
-1 3 4 5 2 -4 -0 -0 0 -1 -2 -1 -3 -1 -1 -2 -2 0 -2 -4 -4 -3 -3 -2 -3 -3 3 -3 -2 -3 -2 -2 -0 -1 -1 -2 1 2 1 2 5 1 1 3
-5 -4 -6 -7 -1 -4 1 -2 -7 0 2 0 -2 -1 -1 -3 0 -1 -4 -4 -4 -4 -3 -1 1 -0 -2 -1 -1 0 -2 -1 -1 -1 -2 -0 -1 -6 4 -1 -1 1 3 6
-7 2 -8 -2 4 5 -3 -6 6 -4 -1 -3 -1 -3 -3 -2 3 -3 -6 -5 -4 -4 -3 -2 -1 -1 0 -2 -0 -2 2 1 -2 -1 -0 -2 -1 -1 -8 -5 -2 1 -0 1
-4 9 7 5 -1 -3 -7 4 -4 -1 -1 -2 -3 -2 0 -0 -1 -5 -5 -3 -0 -2 -0 -1 2 -2 -2 -1 -2 0 1 1 1 -1 -1 -0 0 -1 1 -1 -4 -6 0 -1
3 1 -6 0 0 2 -0 -4 2 -0 -1 1 0 -2 -1 -2 -5 -5 -3 1 1 -1 -0 -0 -3 -2 -2 -0 -2 1 -2 -2 -2 -2 1 1 1 -1 0 -1 -1 -1 -2 -1
-0 2 1 -6 -1 9 1 -2 0 -2 0 1 -1 1 -2 -4 -4 -1 -1 1 -0 -2 0 -3 -2 -3 -2 1 -4 -3 -2 -1 0 0 -1 1 1 -0 -0 -0 -1 1 -0 -1
5 8 6 2 -1 3 -5 -5 -1 -5 -2 1 -1 -3 -3 -2 -2 -2 3 0 1 -1 -3 -3 -4 -2 0 -1 -3 -3 -3 -3 -1 -2 1 -0 2 1 -0 0 2 2 -2 -0
-7 -3 -2 -4 -3 -2 -1 9 -2 -1 -3 -9 -1 1 -1 -1 -1 0 -0 -1 -1 -1 1 -3 -4 -3 -1 -3 -1 -1 -1 -1 -1 -1 -2 2 0 1 -0 -0 2 2 -3 -1
-1 -5 -0 1 -6 -4 -5 -6 -1 3 -1 -2 -1 -4 1 1 0 -1 3 -1 -0 -0 -0 2 -0 -0 -3 -1 -3 -1 -0 -2 -3 -2 -0 -0 1 -1 -1 0 2 3 -2 -1
1 0 3 -6 -2 -6 -5 -1 -0 -1 -2 0 -0 2 -3 -3 3 0 4 -4 -2 1 2 -1 -2 -2 -1 -0 -1 -0 -2 -2 -1 -3 -1 -0 1 1 -0 1 2 3 0 -1
-1 1 -0 3 -0 1 -1 -3 1 -1 -1 2 2 -3 -2 2 -1 1 -2 -2 -4 2 4 0 -3 -2 -3 -2 -2 -3 -2 -2 -1 -3 -1 0 -0 2 -0 1 1 2 2 -0
3 3 4 1 2 3 7 6 4 3 0 1 4 5 5 -1 3 0 -1 -2 1 4 5 -0 -2 -0 0 0 -1 -3 -3 -1 -1 -1 -1 1 2 2 1 1 1 0 1 2
-2 -4 -3 -2 -1 -3 -4 -1 1 2 0 1 2 2 2 1 4 7 4 3 6 8 7 1 -2 -3 -2 -3 -2 -2 -2 -1 -1 -1 -0 2 0 2 2 1 2 2 2 1
-3 -2 -3 -2 -3 -4 -5 -3 -2 -1 -1 -2 -2 -1 -1 -3 -1 3 10 14 6 5 1 -0 -5 -2 2 -1 0 -0 -2 -1 -1 -2 -1 1 0 1 1 0 2 3 2 3
-1 -1 -1 -1 -2 5 1 -1 -1 3 -1 -0 -3 -3 1 6 3 3 1 2 1 -1 -5 -6 -5 -3 -1 -1 -0 -0 -1 -1 -1 -1 -1 -0 2 -0 3 1 1 3 2 0
-2 -0 5 2 -0 -2 -3 -3 -2 -5 -1 -1 -2 2 5 3 -1 -2 -2 -3 -3 -4 -4 -2 0 0 -2 -1 2 2 -0 -3 -2 -2 1 1 4 -0 3 2 1 3 2 -0
2 2 -1 1 5 -1 -3 -5 -6 -4 -2 -2 -1 -1 -2 -3 -4 -3 0 2 2 1 -1 -2 -2 -1 1 -1 -2 -1 1 -2 0 0 -2 -2 0 3 2 4 2 3 2 2
Height
1404 1398 1407 1415 1412 1414 1412 1414 1429 1431 1431 1431 1437 1444 1452 1456 1461 1465 1468 1470 1471 1472 1472 1470 1469 1468 1467 1465 1463 1461 1458 1454 1451 1448 1444 1441 1439 1436 1434 1430 1427 1423 1419 1415
1419 1409 1408 1421 1411 1405 1406 1407 1407 1417 1425 1428 1430 1438 1446 1453 1457 1461 1464 1467 1468 1468 1467 1467 1465 1463 1461 1459 1457 1454 1451 1447 1444 1441 1438 1435 1431 1428 1426 1423 1420 1416 1414 1413
1427 1420 1419 1424 1412 1408 1402 1400 1404 1415 1419 1425 1433 1439 1446 1451 1456 1461 1464 1464 1464 1465 1465 1465 1462 1460 1456 1453 1450 1446 1443 1440 1437 1434 1431 1428 1424 1421 1418 1415 1412 1409 1407 1405
1428 1437 1433 1400 1398 1400 1405 1403 1404 1409 1417 1425 1433 1442 1448 1454 1458 1460 1461 1462 1463 1463 1462 1460 1457 1453 1450 1447 1444 1440 1437 1433 1430 1427 1423 1420 1417 1413 1410 1407 1404 1402 1400 1400
1427 1428 1406 1397 1403 1405 1407 1407 1408 1411 1415 1423 1433 1441 1449 1453 1455 1458 1460 1459 1459 1459 1458 1454 1451 1448 1444 1440 1437 1433 1429 1425 1422 1418 1415 1411 1409 1406 1402 1399 1399 1393 1393 1393
1427 1420 1415 1393 1390 1401 1404 1412 1408 1410 1418 1427 1434 1443 1446 1449 1453 1455 1456 1455 1455 1454 1453 1450 1446 1442 1439 1435 1431 1427 1423 1419 1415 1412 1408 1404 1402 1399 1395 1391 1390 1387 1385 1385
1417 1415 1403 1393 1399 1405 1417 1413 1409 1415 1423 1431 1439 1443 1446 1449 1451 1453 1453 1453 1452 1450 1448 1445 1441 1437 1433 1429 1426 1421 1416 1411 1408 1404 1400 1398 1394 1393 1389 1385 1381 1380 1377 1375
1413 1415 1411 1396 1404 1409 1410 1414 1418 1423 1430 1436 1440 1443 1446 1449 1450 1450 1450 1449 1448 1446 1444 1441 1438 1433 1428 1424 1420 1415 1409 1404 1401 1397 1394 1391 1388 1385 1382 1379 1375 1372 1369 1366
1394 1391 1392 1393 1400 1407 1412 1416 1423 1427 1431 1435 1439 1441 1444 1446 1447 1447 1448 1447 1445 1443 1440 1438 1433 1430 1425 1420 1414 1408 1403 1399 1395 1391 1388 1385 1382 1378 1375 1373 1368 1365 1363 1359
1390 1388 1388 1392 1399 1406 1413 1419 1423 1427 1431 1434 1437 1440 1441 1443 1444 1446 1446 1444 1442 1438 1435 1432 1429 1426 1421 1415 1410 1404 1399 1394 1390 1385 1382 1379 1377 1374 1371 1368 1364 1360 1356 1353
1386 1388 1391 1395 1400 1406 1413 1418 1422 1425 1429 1432 1435 1437 1438 1441 1442 1443 1443 1440 1437 1434 1432 1428 1424 1420 1416 1410 1406 1402 1396 1391 1385 1381 1378 1375 1373 1370 1366 1363 1360 1355 1351 1347
1384 1386 1390 1395 1400 1406 1411 1416 1421 1424 1426 1428 1431 1434 1436 1438 1439 1439 1437 1436 1433 1431 1429 1425 1419 1415 1410 1406 1403 1399 1393 1388 1382 1378 1375 1372 1368 1364 1361 1357 1353 1349 1345 1342
1382 1384 1389 1394 1399 1404 1410 1414 1418 1422 1423 1426 1429 1431 1433 1435 1435 1433 1433 1433 1430 1427 1424 1421 1415 1410 1407 1403 1399 1395 1390 1385 1380 1377 1373 1369 1365 1360 1354 1350 1348 1344 1340 1337
1381 1384 1389 1393 1399 1405 1409 1414 1416 1420 1421 1424 1427 1429 1430 1431 1430 1430 1431 1429 1426 1423 1421 1416 1412 1408 1404 1400 1395 1391 1386 1382 1378 1374 1371 1366 1361 1357 1353 1348 1343 1340 1337 1332
1380 1384 1389 1395 1399 1404 1407 1412 1415 1417 1419 1421 1423 1425 1427 1426 1426 1427 1426 1424 1422 1419 1417 1413 1409 1405 1402 1397 1392 1387 1382 1378 1374 1371 1367 1363 1358 1355 1351 1347 1343 1339 1335 1331
1381 1383 1388 1396 1400 1403 1406 1410 1412 1414 1415 1417 1419 1420 1421 1423 1424 1422 1420 1419 1417 1414 1411 1408 1405 1403 1399 1394 1388 1383 1379 1375 1372 1367 1363 1360 1355 1352 1349 1346 1343 1339 1335 1331
1378 1383 1388 1394 1398 1401 1404 1409 1409 1410 1412 1412 1413 1415 1418 1418 1417 1416 1415 1413 1412 1409 1407 1405 1402 1400 1396 1390 1385 1381 1377 1372 1368 1364 1360 1357 1353 1350 1347 1345 1342 1339 1336 1333
1378 1383 1387 1392 1396 1399 1401 1405 1406 1405 1405 1408 1410 1411 1410 1411 1409 1409 1408 1407 1406 1404 1402 1399 1397 1396 1392 1387 1383 1379 1374 1369 1365 1362 1357 1354 1351 1347 1345 1343 1341 1339 1336 1335
1376 1381 1385 1389 1393 1395 1398 1401 1402 1402 1403 1404 1404 1403 1404 1404 1403 1402 1402 1400 1399 1397 1396 1393 1391 1389 1386 1383 1379 1375 1370 1365 1361 1357 1354 1350 1347 1344 1342 1341 1340 1338 1336 1335
1375 1380 1384 1387 1390 1393 1395 1398 1399 1398 1398 1398 1398 1398 1397 1396 1395 1395 1395 1393 1393 1392 1390 1388 1385 1383 1381 1378 1374 1370 1365 1361 1357 1353 1349 1346 1344 1341 1339 1338 1338 1337 1336 1335
1375 1379 1383 1386 1389 1391 1392 1393 1393 1393 1393 1393 1392 1390 1389 1389 1388 1388 1387 1384 1384 1385 1383 1381 1379 1377 1374 1371 1368 1364 1360 1356 1352 1349 1345 1342 1339 1337 1336 1334 1334 1334 1334 1334
1375 1378 1380 1382 1384 1386 1387 1387 1387 1387 1385 1385 1384 1383 1382 1380 1380 1378 1376 1376 1376 1376 1374 1373 1372 1370 1367 1364 1361 1358 1354 1350 1347 1344 1341 1337 1334 1333 1331 1330 1330 1330 1330 1331
1373 1375 1377 1378 1379 1379 1380 1380 1380 1379 1378 1377 1376 1375 1373 1372 1372 1371 1368 1368 1367 1366 1365 1364 1364 1363 1360 1357 1353 1350 1347 1344 1341 1338 1335 1332 1329 1327 1326 1325 1325 1325 1326 1327
1372 1373 1373 1374 1373 1374 1374 1374 1374 1373 1372 1370 1369 1368 1367 1365 1364 1363 1362 1361 1359 1358 1357 1357 1356 1354 1352 1349 1346 1343 1341 1338 1335 1332 1329 1327 1323 1321 1320 1319 1319 1319 1320 1322
1370 1370 1370 1370 1371 1372 1371 1370 1370 1369 1367 1365 1363 1362 1360 1359 1358 1356 1355 1354 1352 1351 1350 1349 1348 1346 1344 1341 1339 1337 1334 1332 1329 1326 1322 1320 1317 1315 1313 1313 1313 1313 1314 1316
1367 1368 1369 1368 1368 1367 1367 1366 1365 1364 1363 1361 1360 1359 1357 1354 1353 1351 1350 1348 1347 1345 1343 1342 1340 1339 1337 1334 1332 1330 1327 1324 1322 1319 1316 1314 1311 1308 1307 1306 1306 1307 1307 1309
1365 1365 1365 1365 1364 1363 1361 1361 1361 1360 1359 1357 1355 1354 1352 1350 1348 1346 1344 1342 1340 1338 1337 1335 1333 1331 1329 1327 1324 1322 1320 1317 1315 1312 1309 1307 1305 1302 1300 1299 1299 1300 1301 1303